Weather History for KIJX - April, 2013

Change the Weather History Date:

Saturday, April 27, 2013

  Actual Average (KSPI) Record (KSPI)
Temperature  
Mean Temperature 47 °F 58 °F  
Max Temperature 53 °F 69 °F 87 °F (1981)
Min Temperature 41 °F 46 °F 33 °F (1968)
Degree Days  
Heating Degree Days 18 8  
Month to date heating degree days 342  
Since 1 July heating degree days 5324  
Cooling Degree Days 0 1  
Month to date cooling degree days 16  
Year to date cooling degree days 18  
Moisture  
Dew Point 48 °F    
Average Humidity 90    
Maximum Humidity 97    
Minimum Humidity 79    
Precipitation  
Precipitation 0.26 in 0.13 in 1.93 in (2002)
Month to date precipitation 3.12  
Year to date precipitation 9.38  
Snow  
Snow 0.00 in 0.00 in 0.00 in ()
Month to date snowfall 0.3  
Since 1 July snowfall 20.9  
Snow Depth -    
Sea Level Pressure  
Sea Level Pressure 30.14 in    
Wind  
Wind Speed 6 mph (East)    
Max Wind Speed 13 mph    
Max Gust Speed -    
Visibility 6 miles    
Events Rain    
T = Trace of Precipitation, MM = Missing Value Source: NWS Daily Summary

Daily Weather History Graph

Daily Weather History Graph

Search for Another Location

Airport or City:

Trip Planner

Search our weather history database for the weather conditions in past years. The results will help you decide how hot, cold, wet, or windy it might be!

Date:

Astronomy

Apr. 27, 2013 Rise Set
Actual Time 6:06 AM CDT 7:51 PM CDT
Civil Twilight 5:37 AM CDT 8:20 PM CDT
Nautical Twilight 5:02 AM CDT 8:55 PM CDT
Astronomical Twilight 4:25 AM CDT 9:33 PM CDT
Moon 10:20 PM CDT (4/27) 7:25 AM CDT (4/27)
Length of Visible Light 14h 43m
Length of Day
13h 45m
Waning Gibbous, 95% of the Moon is Illuminated
Apr 27
Waning Gibbous
May 2
Last Quarter
May 9
New
May 17
First Quarter
May 24
Full

Hourly Weather History & Observations

Time (CDT) Temp. Windchill Dew Point Humidity Pressure Visibility Wind Dir Wind Speed Gust Speed Precip Events Conditions
12:15 AM 50.5 °F - 44.4 °F 80% 30.31 in 10.0 mi South 4.6 mph - N/A   Scattered Clouds
12:35 AM 49.6 °F - 43.7 °F 80% 30.29 in 10.0 mi SE 3.5 mph - N/A   Scattered Clouds
12:55 AM 48.7 °F - 43.7 °F 83% 30.29 in 10.0 mi South 3.5 mph - N/A   Clear
1:15 AM 48.4 °F - 43.3 °F 83% 30.29 in 10.0 mi SE 3.5 mph - N/A   Clear
1:35 AM 46.4 °F 45.2 °F 42.4 °F 86% 30.29 in 10.0 mi ESE 3.5 mph - N/A   Clear
1:55 AM 45.1 °F 42.8 °F 41.7 °F 88% 30.28 in 10.0 mi ESE 4.6 mph - N/A   Clear
2:15 AM 45.3 °F - 42.4 °F 90% 30.28 in 10.0 mi Calm Calm - N/A   Clear
2:35 AM 43.9 °F - 41.4 °F 91% 30.28 in 10.0 mi Calm Calm - N/A   Clear
2:55 AM 43.7 °F 42.1 °F 41.5 °F 92% 30.27 in 7.0 mi ESE 3.5 mph - N/A   Scattered Clouds
3:15 AM 42.6 °F 40.9 °F 40.5 °F 92% 30.26 in 7.0 mi ESE 3.5 mph - N/A   Scattered Clouds
3:35 AM 41.9 °F - 40.1 °F 93% 30.25 in 7.0 mi Calm Calm - N/A   Scattered Clouds
3:55 AM 43.0 °F 39.5 °F 41.5 °F 95% 30.25 in 7.0 mi East 5.8 mph - N/A   Mostly Cloudy
4:15 AM 43.7 °F 41.1 °F 42.3 °F 95% 30.25 in 5.0 mi East 4.6 mph - N/A   Overcast
4:35 AM 43.7 °F 40.3 °F 42.3 °F 95% 30.23 in 5.0 mi ENE 5.8 mph - N/A   Overcast
4:55 AM 43.7 °F 39.7 °F 42.1 °F 94% 30.24 in 5.0 mi East 6.9 mph - N/A   Mostly Cloudy
5:15 AM 43.2 °F 41.5 °F 41.9 °F 95% 30.23 in 5.0 mi East 3.5 mph - N/A   Mostly Cloudy
6:35 AM 45.9 °F 42.9 °F 44.6 °F 95% 30.22 in 5.0 mi ESE 5.8 mph - N/A   Overcast
6:55 AM 47.5 °F - 45.7 °F 93% 30.21 in 7.0 mi East 6.9 mph - N/A   Overcast
7:15 AM 48.6 °F - 46.2 °F 92% 30.20 in 7.0 mi East 5.8 mph - N/A   Overcast
7:35 AM 49.3 °F - 45.9 °F 88% 30.21 in 10.0 mi ESE 5.8 mph - N/A   Overcast
7:55 AM 50.0 °F - 45.9 °F 86% 30.21 in 10.0 mi ESE 5.8 mph - N/A   Mostly Cloudy
8:15 AM 50.4 °F - 46.4 °F 86% 30.20 in 10.0 mi East 6.9 mph - N/A   Overcast
8:35 AM 50.5 °F - 46.4 °F 86% 30.20 in 10.0 mi East 8.1 mph - N/A   Overcast
8:55 AM 51.1 °F - 46.0 °F 83% 30.20 in 10.0 mi East 8.1 mph - N/A   Overcast
9:15 AM 51.6 °F - 45.9 °F 81% 30.20 in 10.0 mi East 9.2 mph - N/A   Overcast
9:35 AM 52.2 °F - 46.4 °F 81% 30.19 in 10.0 mi East 10.4 mph - N/A   Overcast
9:55 AM 52.2 °F - 47.1 °F 83% 30.19 in 5.0 mi East 9.2 mph - N/A   Haze
10:15 AM 52.7 °F - 47.1 °F 81% 30.18 in 10.0 mi East 11.5 mph - N/A Rain Light Rain
10:35 AM 53.2 °F - 47.8 °F 82% 30.18 in 10.0 mi East 9.2 mph - N/A   Overcast
10:55 AM 53.6 °F - 47.3 °F 79% 30.18 in 10.0 mi East 10.4 mph - N/A   Light Drizzle
11:15 AM 53.4 °F - 47.3 °F 80% 30.18 in 4.0 mi East 11.5 mph - N/A Rain Light Rain
11:35 AM 53.2 °F - 47.8 °F 82% 30.18 in 7.0 mi ESE 9.2 mph - N/A Rain Light Rain
11:55 AM 52.7 °F - 48.2 °F 85% 30.18 in 4.0 mi ESE 6.9 mph - N/A Rain Rain
12:15 PM 52.7 °F - 49.1 °F 88% 30.17 in 3.0 mi ESE 9.2 mph - 0.01 in Rain Light Rain
12:35 PM 52.7 °F - 50.0 °F 91% 30.16 in 4.0 mi East 12.7 mph - 0.01 in Rain Light Rain
12:55 PM 53.1 °F - 50.0 °F 89% 30.15 in 7.0 mi East 10.4 mph - 0.01 in   Overcast
1:15 PM 52.9 °F - 49.3 °F 88% 30.14 in 7.0 mi East 12.7 mph - N/A   Overcast
1:35 PM 52.9 °F - 49.1 °F 87% 30.14 in 10.0 mi East 11.5 mph - N/A   Light Drizzle
1:55 PM 52.9 °F - 49.3 °F 88% 30.13 in 7.0 mi East 8.1 mph - N/A   Overcast
2:15 PM 52.9 °F - 49.3 °F 88% 30.13 in 7.0 mi ESE 8.1 mph - N/A Rain Light Rain
2:35 PM 52.7 °F - 49.1 °F 88% 30.12 in 7.0 mi East 11.5 mph - N/A   Light Drizzle
2:55 PM 53.4 °F - 49.8 °F 88% 30.11 in 7.0 mi East 9.2 mph - N/A   Overcast
3:15 PM 52.7 °F - 49.3 °F 88% 30.10 in 2.5 mi East 8.1 mph - N/A   Overcast
3:35 PM 52.5 °F - 49.8 °F 91% 30.09 in 2.0 mi ESE 8.1 mph - N/A   Overcast
3:55 PM 52.3 °F - 50.0 °F 92% 30.08 in 1.5 mi East 9.2 mph - N/A   Overcast
4:15 PM 52.3 °F - 50.2 °F 92% 30.08 in 2.0 mi East 6.9 mph - N/A   Overcast
4:35 PM 52.3 °F - 50.5 °F 94% 30.07 in 2.5 mi East 6.9 mph - N/A   Overcast
4:55 PM 52.2 °F - 50.5 °F 94% 30.07 in 2.5 mi East 5.8 mph - N/A   Overcast
5:15 PM 52.3 °F - 50.7 °F 94% 30.06 in 2.0 mi ENE 9.2 mph - N/A   Overcast
5:35 PM 52.3 °F - 50.7 °F 94% 30.05 in 5.0 mi ENE 6.9 mph - 0.01 in   Overcast
5:55 PM 52.3 °F - 50.9 °F 95% 30.05 in 2.5 mi NE 5.8 mph - 0.01 in Rain Light Rain
6:15 PM 52.2 °F - 50.9 °F 95% 30.04 in 2.5 mi ENE 5.8 mph - N/A   Overcast
6:35 PM 52.0 °F - 50.9 °F 96% 30.03 in 3.0 mi NE 5.8 mph - 0.01 in Rain Rain
6:55 PM 52.0 °F - 50.9 °F 96% 30.02 in 4.0 mi NE 3.5 mph - 0.02 in Rain Rain
7:15 PM 52.0 °F - 50.9 °F 96% 30.02 in 4.0 mi NE 5.8 mph - N/A Rain Rain
7:35 PM 51.8 °F - 50.5 °F 95% 30.02 in 4.0 mi NE 4.6 mph - 0.01 in Rain Light Rain
7:55 PM 51.8 °F - 50.7 °F 96% 30.02 in 3.0 mi NE 3.5 mph - 0.02 in Rain Light Rain
8:15 PM 51.8 °F - 50.9 °F 97% 30.01 in 3.0 mi NE 3.5 mph - 0.02 in Rain Rain
8:35 PM 51.8 °F - 50.9 °F 97% 30.01 in 3.0 mi NE 4.6 mph - 0.04 in Rain Rain
8:55 PM 51.8 °F - 50.9 °F 97% 30.02 in 3.0 mi NE 4.6 mph - 0.05 in Rain Light Rain
9:15 PM 51.8 °F - 50.7 °F 96% 30.01 in 3.0 mi NNE 4.6 mph - 0.02 in Rain Rain
9:35 PM 51.8 °F - 50.5 °F 95% 30.01 in 2.5 mi NNE 4.6 mph - 0.04 in Rain Heavy Rain
9:55 PM 51.8 °F - 50.9 °F 97% 30.00 in 3.0 mi NNE 3.5 mph - 0.07 in Rain Rain
10:15 PM 51.8 °F - 50.9 °F 97% 30.00 in 3.0 mi NNE 3.5 mph - 0.01 in Rain Rain
10:35 PM 51.8 °F - 50.9 °F 97% 29.99 in 3.0 mi North 3.5 mph - 0.04 in Rain Rain
10:55 PM 51.8 °F - 50.9 °F 97% 29.98 in 2.5 mi North 4.6 mph - 0.05 in Rain Light Rain
11:15 PM 51.8 °F - 50.9 °F 97% 29.97 in 2.5 mi North 5.8 mph - 0.01 in Rain Light Rain
11:35 PM 51.8 °F - 50.9 °F 97% 29.96 in 2.5 mi NNE 4.6 mph - 0.02 in Rain Light Rain
11:55 PM 51.8 °F - 50.9 °F 97% 29.96 in 2.5 mi NNE 5.8 mph - 0.03 in Rain Light Rain